contact:dominique.lefevre@mio.osupytheas.fr, maurice.libes@osupytheas.fr
Project:EMSO Ligure-ouest http://www.emso-fr.org/EMSO-France
Sensor Aquadopp, line 13 Serial AQD14315 
DOI : "https://doi.org/10.17882/74513; https://doi.org/10.17882/83244" 
Title:EMSO Ligure Ouest : Data ligne ALBATROSS capteur AQUADOPP - deploiement 2021
Id,Date,Profondeur,Latitude,Longitude,X_East,Y_North,Z_Up,Amplitude_X,Amplitude_Y,Amplitude_Z,Batterie,SoundSpeed,Heading,Pitch,Roll,Pressure,Temperature,Speed,Direction
, , m, degrees North, degrees East, m.s-1, m.s-1,m.s-1, 1, 1, 1, Volt, m.s-1, degree, degree, degree, dbar, degree_C, m.s-1, degree
07,2023-01-20T23:30:00,1500.0,42.79,6.0312,-0.031,-0.004,0.002,49.0,53.0,49.0,12.5,1504.1,222.7,-0.6,1.4,1474.754,13.13,0.031,262.7
07,2023-01-21T00:00:00,1500.0,42.79,6.0312,-0.024,-0.002,-0.003,51.0,53.0,52.0,12.5,1504.2,222.5,0.0,1.1,1474.732,13.14,0.024,265.2
07,2023-01-21T00:30:00,1500.0,42.79,6.0312,-0.021,0.0,-0.005,49.0,52.0,53.0,12.5,1504.1,222.5,-0.4,1.1,1474.733,13.13,0.021,270.0
07,2023-01-21T01:00:00,1500.0,42.79,6.0312,-0.017,-0.006,-0.01,51.0,52.0,50.0,12.5,1504.1,221.7,-0.2,1.1,1474.708,13.13,0.018,250.6
07,2023-01-21T01:30:00,1500.0,42.79,6.0312,-0.016,-0.009,-0.007,49.0,52.0,51.0,12.5,1504.1,222.7,-0.3,1.3,1474.728,13.13,0.018,240.6
07,2023-01-21T02:00:00,1500.0,42.79,6.0312,-0.023,-0.009,0.0,50.0,50.0,50.0,12.5,1504.1,222.4,-0.2,1.3,1474.724,13.13,0.024,248.6
07,2023-01-21T02:30:00,1500.0,42.79,6.0312,-0.022,-0.016,-0.003,50.0,52.0,51.0,12.5,1504.2,224.2,-0.4,1.1,1474.723,13.14,0.027,234.0
07,2023-01-21T03:00:00,1500.0,42.79,6.0312,-0.019,-0.017,0.007,51.0,50.0,50.0,12.5,1504.2,219.3,-0.4,1.0,1474.803,13.14,0.025,228.2
07,2023-01-21T03:30:00,1500.0,42.79,6.0312,-0.036,-0.024,-0.003,49.0,51.0,48.0,12.5,1504.2,218.2,-0.2,1.3,1474.825,13.14,0.043,236.3
07,2023-01-21T04:00:00,1500.0,42.79,6.0312,-0.031,-0.011,0.001,49.0,52.0,48.0,12.5,1504.2,217.7,-0.2,1.0,1474.809,13.14,0.032,250.5
07,2023-01-21T04:30:00,1500.0,42.79,6.0312,-0.035,-0.018,0.012,50.0,53.0,50.0,12.5,1504.2,216.5,-0.3,1.0,1474.86,13.14,0.039,242.8
07,2023-01-21T05:00:00,1500.0,42.79,6.0312,-0.026,-0.009,-0.013,49.0,51.0,52.0,12.5,1504.2,217.6,-0.3,1.1,1474.896,13.14,0.027,250.9
07,2023-01-21T05:30:00,1500.0,42.79,6.0312,-0.041,-0.016,0.008,51.0,52.0,53.0,12.5,1504.2,216.9,-0.5,1.2,1474.952,13.14,0.044,248.7
07,2023-01-21T06:00:00,1500.0,42.79,6.0312,-0.039,-0.016,-0.006,51.0,52.0,50.0,12.5,1504.2,218.4,-0.3,1.1,1474.93,13.14,0.042,247.7
07,2023-01-21T06:30:00,1500.0,42.79,6.0312,-0.052,-0.014,0.004,54.0,53.0,51.0,12.5,1504.2,218.8,-0.4,1.3,1475.004,13.14,0.053,254.9
07,2023-01-21T07:00:00,1500.0,42.79,6.0312,-0.052,-0.009,-0.007,49.0,52.0,50.0,12.5,1504.2,216.5,-0.2,1.3,1474.992,13.14,0.052,260.2
07,2023-01-21T07:30:00,1500.0,42.79,6.0312,-0.058,-0.007,0.004,51.0,52.0,52.0,12.5,1504.2,220.5,-0.2,1.1,1474.995,13.14,0.058,263.1
07,2023-01-21T08:00:00,1500.0,42.79,6.0312,-0.062,-0.004,0.002,51.0,51.0,51.0,12.5,1504.1,214.5,0.1,1.3,1475.01,13.13,0.062,266.3
07,2023-01-21T08:30:00,1500.0,42.79,6.0312,-0.061,0.0,-0.004,52.0,54.0,52.0,12.5,1504.2,215.8,-0.3,1.3,1475.023,13.14,0.06,270.0
07,2023-01-21T09:00:00,1500.0,42.79,6.0312,-0.057,0.009,0.006,52.0,52.0,52.0,12.5,1504.1,217.2,-0.4,1.3,1475.002,13.13,0.057,279.0
07,2023-01-21T09:30:00,1500.0,42.79,6.0312,-0.065,-0.006,0.005,52.0,53.0,52.0,12.5,1504.1,213.3,-0.6,1.3,1475.046,13.13,0.065,264.7
07,2023-01-21T10:00:00,1500.0,42.79,6.0312,-0.067,0.002,0.007,51.0,52.0,50.0,12.5,1504.1,216.3,-0.7,1.1,1475.01,13.13,0.067,271.7
07,2023-01-21T10:30:00,1500.0,42.79,6.0312,-0.062,0.006,-0.006,53.0,54.0,53.0,12.5,1504.1,218.9,-0.4,1.1,1475.023,13.13,0.062,275.5
07,2023-01-21T11:00:00,1500.0,42.79,6.0312,-0.054,0.0,0.014,53.0,54.0,51.0,12.5,1504.1,217.0,-0.2,1.2,1475.023,13.13,0.053,270.0
07,2023-01-21T11:30:00,1500.0,42.79,6.0312,-0.058,0.024,-0.007,51.0,53.0,50.0,12.5,1504.1,219.9,-0.5,1.2,1475.04,13.13,0.062,292.5
07,2023-01-21T12:00:00,1500.0,42.79,6.0312,-0.049,0.014,0.002,52.0,52.0,50.0,12.5,1504.1,222.0,-0.6,1.5,1474.995,13.13,0.05,285.9
07,2023-01-21T12:30:00,1500.0,42.79,6.0312,-0.043,0.023,-0.001,51.0,53.0,51.0,12.5,1504.1,222.9,-0.8,1.1,1474.944,13.13,0.048,298.1
07,2023-01-21T13:00:00,1500.0,42.79,6.0312,-0.041,0.019,0.004,50.0,51.0,49.0,12.5,1504.1,225.5,-0.5,1.4,1475.009,13.12,0.045,294.9
07,2023-01-21T13:30:00,1500.0,42.79,6.0312,-0.043,0.018,0.001,51.0,51.0,50.0,12.5,1504.1,226.8,-0.5,1.3,1475.015,13.12,0.046,292.7
07,2023-01-21T14:00:00,1500.0,42.79,6.0312,-0.038,0.013,0.0,50.0,52.0,51.0,12.5,1504.1,227.2,-0.7,1.3,1475.011,13.13,0.04,288.9
07,2023-01-21T14:30:00,1500.0,42.79,6.0312,-0.038,-0.008,-0.004,50.0,51.0,48.0,12.5,1504.1,228.5,-0.6,1.3,1475.031,13.13,0.038,258.1
07,2023-01-21T15:00:00,1500.0,42.79,6.0312,-0.042,-0.001,0.0,49.0,48.0,50.0,12.5,1504.1,231.7,-0.5,1.2,1475.004,13.13,0.042,268.6
07,2023-01-21T15:30:00,1500.0,42.79,6.0312,-0.038,0.008,0.0,48.0,48.0,48.0,12.5,1504.1,232.6,-0.5,1.2,1475.032,13.12,0.038,281.9
07,2023-01-21T16:00:00,1500.0,42.79,6.0312,-0.04,0.009,0.007,46.0,46.0,47.0,12.5,1504.1,232.8,-0.4,1.2,1475.001,13.13,0.041,282.7
07,2023-01-21T16:30:00,1500.0,42.79,6.0312,-0.037,0.008,-0.006,46.0,48.0,45.0,12.5,1504.1,229.3,-0.5,1.2,1475.03,13.13,0.037,282.2
07,2023-01-21T17:00:00,1500.0,42.79,6.0312,-0.037,0.007,0.002,45.0,47.0,45.0,12.5,1504.1,228.1,-0.3,1.2,1475.053,13.13,0.037,280.7
07,2023-01-21T17:30:00,1500.0,42.79,6.0312,-0.038,0.002,0.0,43.0,45.0,43.0,12.5,1504.1,226.1,-0.4,1.1,1475.04,13.13,0.038,273.0
07,2023-01-21T18:00:00,1500.0,42.79,6.0312,-0.038,0.006,-0.001,45.0,45.0,46.0,12.5,1504.1,223.5,-0.1,1.1,1475.051,13.13,0.038,279.0
07,2023-01-21T18:30:00,1500.0,42.79,6.0312,-0.039,-0.007,0.002,47.0,45.0,44.0,12.5,1504.1,221.0,-0.2,1.3,1475.045,13.13,0.039,259.8
07,2023-01-21T19:00:00,1500.0,42.79,6.0312,-0.03,-0.005,0.012,47.0,47.0,45.0,12.5,1504.1,221.7,-0.6,1.2,1475.042,13.13,0.03,260.5
07,2023-01-21T19:30:00,1500.0,42.79,6.0312,-0.032,0.006,0.0,46.0,48.0,48.0,12.5,1504.1,221.2,-0.4,1.3,1475.049,13.13,0.032,280.6
07,2023-01-21T20:00:00,1500.0,42.79,6.0312,-0.041,0.008,0.005,48.0,48.0,48.0,12.5,1504.1,220.6,-0.4,1.1,1475.004,13.13,0.041,281.0
07,2023-01-21T20:30:00,1500.0,42.79,6.0312,-0.047,-0.003,0.006,47.0,48.0,48.0,12.5,1504.1,219.3,-0.5,1.4,1475.004,13.13,0.047,266.4
07,2023-01-21T21:00:00,1500.0,42.79,6.0312,-0.028,0.001,-0.002,52.0,52.0,52.0,12.5,1504.1,216.7,-0.2,1.0,1474.969,13.13,0.028,272.0
07,2023-01-21T21:30:00,1500.0,42.79,6.0312,-0.037,-0.008,0.006,54.0,55.0,53.0,12.5,1504.1,215.4,-0.4,1.0,1474.951,13.13,0.037,257.8
07,2023-01-21T22:00:00,1500.0,42.79,6.0312,-0.041,0.006,-0.006,56.0,57.0,57.0,12.5,1504.1,215.9,-0.5,1.1,1474.9,13.13,0.041,278.3
07,2023-01-21T22:30:00,1500.0,42.79,6.0312,-0.052,-0.01,0.013,56.0,58.0,57.0,12.5,1504.1,210.9,-0.3,1.3,1474.885,13.13,0.052,259.1
07,2023-01-21T23:00:00,1500.0,42.79,6.0312,-0.04,-0.007,0.004,59.0,58.0,56.0,12.5,1504.1,209.6,-0.1,1.1,1474.885,13.13,0.04,260.1
